Regional Weather Roundup
Issued by NWS

Home | Current Version | Previous Version | Graphics & Text | Print | Product List | Glossary Off
Versions: 1 2 3 4 5 6 7 8 9 10 11 12 13 14 15 16 17 18 19 20 21 22 23 24 25 26 27 28 29 30 31 32 33 34 35 36 37 38 39 40 41 42 43 44 45 46 47 48 49 50

000
ASUS43 KMPX 290201
RWRMN
WEATHER ROUNDUP FOR MINNESOTA
NATIONAL WEATHER SERVICE TWIN CITIES/CHANHASSEN MN
900 PM CDT THU JUL 28 2016


NOTE: "FAIR" INDICATES FEW OR NO CLOUDS BELOW 12,000 FEET WITH NO
SIGNIFICANT WEATHER AND/OR OBSTRUCTIONS TO VISIBILITY. N/A MEANS
CURRENT SKY AND/OR WEATHER CONDITIONS ARE NOT AVAILABLE.

MNZ060>063-068>070-290300-
   Twin Cities Metro

CITY           SKY/WX    TMP DP  RH WIND       PRES   REMARKS
TWIN CITIES    PTCLDY    72  56  57 NE6       30.03S
ST PAUL        PTCLDY    72  56  57 NE6       30.03S
CRYSTAL        MOCLDY    71  56  58 NE6       30.02S
BLAINE         PTCLDY    72  61  68 N8        30.03F
LAKEVILLE      CLOUDY    68  57  68 NE5       30.02F
EDEN PRAIRIE   MOCLDY    73  56  54 NE6       30.02S
LAKEVILLE      CLOUDY    68  57  68 NE5       30.02F
SOUTH ST PAUL  MOCLDY    72  56  57 N5        30.02S
LAKE ELMO      MOCLDY    70  59  68 CALM      30.04S
$$
MNZ001>005-007-008-013>017-022>024-027-028-290300-
   Northwest Minnesota

CITY           SKY/WX    TMP DP  RH WIND       PRES   REMARKS
BEMIDJI        CLEAR     68  55  64 VRB3      30.07S
HALLOCK        CLEAR     66  57  72 N5        30.07S
ROSEAU         CLEAR     64  59  82 E3        30.09S
WARROAD        CLEAR     66  57  72 CALM      30.09S
THIEF RVR FALL CLEAR     69  56  62 NE5       30.08F
CROOKSTON      CLEAR     66  59  77 N3        30.08R
FOSSTON        CLEAR     64  55  72 N3        30.09S
DETROIT LAKES  PTCLDY    70  59  68 NE3       30.08F
MOORHEAD       CLEAR     68  63  83 N6        30.07S
PARK RAPIDS    CLOUDY    73  56  54 NE6       30.08R
MAHNOMEN       FAIR      65  60  81 E5        30.08R
$$
MNZ006-009>011-018-025>026-290300-
   North Central Minnesota

CITY           SKY/WX    TMP DP  RH WIND       PRES   REMARKS
BAUDETTE       CLEAR     66  55  67 N3        30.08S
FLAG ISLAND    CLEAR     70  55  60 CALM      30.08S
INTL FALLS     CLEAR     61  57  87 CALM      30.07R
WASKISH        CLEAR     68  57  68 CALM      30.08R
BIG FORK       PTCLDY    66  61  82 CALM      30.08R
LONGVILLE      CLEAR     63  61  94 CALM      30.07S
GRAND RAPIDS   CLOUDY    68  57  68 SE8       30.10R
ORR            PTCLDY    63  55  77 CALM      30.06R
COOK           PTCLDY    64  59  82 CALM      30.08S
WALKER         FAIR      65  58  78 CALM      30.08S
$$
MNZ012-019>021-037-290300-
   Northeast Minnesota

CITY           SKY/WX    TMP DP  RH WIND       PRES   REMARKS
DULUTH         PTCLDY    61  51  70 E5        30.10R
ELY            PTCLDY    63  52  67 S5        30.10R
HIBBING        PTCLDY    62  54  74 SE5       30.10R
EVELETH        CLEAR     63  53  71 CALM      30.12R
DULUTH HARBOR  CLEAR     64  61  88 E7        30.09S
TWO HARBORS    CLEAR     63  55  77 N3        30.08S
SILVER BAY     CLEAR     57  54  88 CALM      30.09S
GRAND MARAIS     N/A     59  52  77 NW5       30.10R
G MARAIS ARPRT CLEAR     54  48  82 CALM      30.13S
$$
MNZ029>031-032-039>041-046>048-054>057-064-290300-
   West Central Minnesota

CITY           SKY/WX    TMP DP  RH WIND       PRES   REMARKS
FERGUS FALLS   MOCLDY    72  61  68 CALM      30.05S
MORRIS         CLOUDY    72  63  73 SE3       30.05S
ALEXANDRIA     CLEAR     68  56  65 E5        30.07S
ELBOW LAKE     FAIR      70  61  72 CALM      30.06S
WADENA         PTCLDY    68  61  77 NE3       30.07R
GLENWOOD       CLEAR     64  59  82 E6        30.07S
APPLETON       MOCLDY    70  61  73 CALM      30.06R
BENSON         PTCLDY    70  55  60 CALM      30.06R
ORTONVILLE     CLOUDY    72  63  73 CALM      30.06R
MADISON        CLEAR     70  59  68 CALM      30.06S
WILLMAR        FAIR      68  59  73 NE3       30.07R
$$
MNZ033>034-036-042>043-049>051-058-059-290300-
   Central Minnesota

CITY           SKY/WX    TMP DP  RH WIND       PRES   REMARKS
ST CLOUD       CLEAR     66  57  72 NE3       30.05F
SAUK CENTRE    FAIR      67  57  72 E5        30.06S
PAYNESVILLE    CLEAR     66  56  69 NE3       30.06S
AITKIN         CLEAR     64  54  68 CALM      30.07S
PINE RIVER     CLEAR     64  61  88 CALM      30.10S
BRAINERD       PTCLDY    68  58  70 SE6       30.07R
STAPLES        CLEAR     70  55  60 CALM      30.07S
LONG PRAIRIE   FAIR      64  59  82 CALM      30.07S
LITTLE FALLS   CLEAR     64  55  72 CALM      30.06F
LITCHFIELD     CLEAR     68  57  68 CALM      30.05S
BUFFALO        CLEAR     68  56  66 N3        30.05S
MAPLE LAKE     CLEAR     68  57  69 N3        30.05S
HUTCHINSON     CLEAR     69  60  73 NE6       30.05S
$$
MNZ037-044-045-052-053-290300-
   East Central Minnesota

CITY           SKY/WX    TMP DP  RH WIND       PRES   REMARKS
PRINCETON      CLOUDY    68  57  68 NE6       30.05F
MORA           PTCLDY    64  55  72 CALM      30.09S
CAMBRIDGE      MOCLDY    70  57  64 CALM      30.04S
RUSH CITY      PTCLDY    64  58  82 CALM      30.07R
MOOSE LAKE     CLEAR     61  54  77 CALM      30.07S
HINCKLEY       FAIR      63  59  88 N3        30.08S
CLOQUET        CLEAR     61  52  72 CALM      30.10R
MCGREGOR       MOCLDY    63  54  72 CALM      30.09S
$$
MNZ071>073-080-081-089-090-097-098-290300-
   Southwest Minnesota

CITY           SKY/WX    TMP DP  RH WIND       PRES   REMARKS
MONTEVIDEO     PTCLDY    66  57  72 E3        30.08R
GRANITE FALLS  PTCLDY    69  60  73 CALM      30.06S
CANBY          CLEAR     68  57  69 CALM      30.07S
MARSHALL       CLEAR     67  59  75 NE5       30.06R
REDWOOD FALLS  CLEAR     70  58  65 CALM      30.04R
OLIVIA         CLEAR     70  59  68 CALM      30.04S
PIPESTONE      PTCLDY    70  55  60 NE1       30.07R
WINDOM         CLOUDY    66  61  82 CALM      30.04S
WORTHINGTON    MOCLDY    67  60  78 CALM      30.06R
JACKSON        PTCLDY    68  61  77 NE5       30.05R
TRACY          PTCLDY    65  61  85 N7        30.06R
SLAYTON        PTCLDY    65  56  73 N3        30.07R
$$
MNZ065>067-074>077-082>085-091>093-290300-
   South Central Minnesota

CITY           SKY/WX    TMP DP  RH WIND       PRES   REMARKS
MANKATO        CLOUDY    70  57  64 NE8       30.03R
NEW ULM        CLEAR     70  55  60 CALM      30.03S
ST JAMES       PTCLDY    63  57  82 CALM      30.04S
FAIRMONT       CLOUDY    68  63  83 E6        30.02R
GLENCOE        CLEAR     69  62  77 NE3       30.03S
FARIBAULT      CLOUDY    68  61  77 NE3       30.02F
OWATONNA       CLOUDY    66  63  88 E9        30.03S
WASECA         CLOUDY    64  63  94 CALM      30.04S
ALBERT LEA     CLOUDY    66  63  88 NE7       30.01F
$$
MNZ078>079-086>088-094>096-290300-
   Southeast Minnesota

CITY           SKY/WX    TMP DP  RH WIND       PRES   REMARKS
ROCHESTER      CLOUDY    65  61  87 NE15      30.02S
RED WING       CLOUDY    68  66  94 CALM      30.02R
STANTON        CLOUDY    68  63  83 E5        30.02R
DODGE CENTER   CLOUDY   N/A N/A N/A NE6       30.02F
WINONA         CLOUDY    66  61  82 E7        30.01R
AUSTIN         CLOUDY    66  61  82 NE7       30.01S
PRESTON        CLOUDY    63  61  91 NE10      30.01S
$$
ABBREVIATIONS USED IN REMARKS
   TC - TEMPERATURES IN CELSIUS
  WCI - WIND CHILL INDEX
   HX - HEAT INDEX
  VSB - VISIBILITY
$$



USA.gov is the U.S. government's official web portal to all federal, state and local government web resources and services.